Powrót do katalogu

DELTA 1 DEB

AktywnyLEO
NORAD 7091·DEBRIS·🇺🇸 United States

Wystrzelony Nov 6, 1973 z Vandenberg Space Force Base

Loading…

Następne Przeloty (najbliższe 24 godziny)

TLE

ŚwieżeSource: Space-Track

Epoka: Sep 14, 2026, 05:34 UTC

1 07091U 73086CK  26257.23241501 -.00000053  00000-0 -14344-3 0  9990
2 07091 102.1582   6.5104 0276313 352.4002  35.0988 11.96366691306776

Śledź DELTA 1 DEB w czasie rzeczywistym z AllMySat

Download on the App Store